Weather History for Sisseton, SD

Change the Weather History Date:

Wednesday, August 7, 2013

  Actual Average Record
Temperature  
Mean Temperature 63 °F 71 °F  
Max Temperature 75 °F 82 °F 102 °F (1983)
Min Temperature 51 °F 59 °F 43 °F (1904)
Degree Days  
Heating Degree Days 2 0  
Month to date heating degree days 8 0  
Since 1 June heating degree days 103 75  
Since 1 July heating degree days 34 13  
Cooling Degree Days 0 6  
Month to date cooling degree days 11 44  
Year to date cooling degree days 359 366  
Since 1 June cooling degree days 334 343  
Growing Degree Days 12 (Base 50)    
Moisture  
Dew Point 54 °F    
Average Humidity 72    
Maximum Humidity 97    
Minimum Humidity 46    
Precipitation  
Precipitation 0.00 in 0.09 in 2.97 in (2009)
Month to date precipitation 0.64 0.70  
Year to date precipitation 18.36 15.00  
Sea Level Pressure  
Sea Level Pressure 29.96 in    
Wind  
Wind Speed 4 mph (NNE)    
Max Wind Speed 9 mph    
Max Gust Speed 13 mph    
T = Trace of Precipitation, MM = Missing Value Source: NWS Daily Summary

Daily Weather History Graph

Daily Weather History Graph

Search for Another Location

Airport:

Trip Planner

Search our weather history database for the weather conditions in past years. The results will help you decide how hot, cold, wet, or windy it might be!

Date:

Astronomy

Aug. 07, 2013 Rise Set
Actual Time 6:18 AM CDT 8:47 PM CDT
Civil Twilight 5:45 AM CDT 9:21 PM CDT
Nautical Twilight 5:03 AM CDT 10:02 PM CDT
Astronomical Twilight 4:15 AM CDT 10:50 PM CDT
Moon 7:14 AM CDT (8/7) 8:48 PM CDT (8/7)
Length of Visible Light 15h 35m
Length of Day
14h 28m
New Moon, 1% of the Moon is Illuminated
Aug 7
New Moon
Aug 14
First Quarter
Aug 20
Full
Aug 28
Last Quarter
Sep 5
New

Hourly Weather History & Observations

Time (CDT) Temp. Dew Point Humidity Pressure Visibility Wind Dir Wind Speed Gust Speed Precip Events Conditions
12:56 AM 61.0 °F 59.0 °F 93% 29.86 in - North 9.2 mph - N/A   Unknown
1:56 AM 57.9 °F 55.9 °F 93% 29.88 in - NNW 6.9 mph - N/A   Unknown
2:56 AM 55.9 °F 54.0 °F 93% 29.88 in - NNW 5.8 mph - N/A   Unknown
3:56 AM 55.0 °F 53.1 °F 93% 29.90 in - NNW 5.8 mph - N/A   Unknown
4:56 AM 53.1 °F 51.1 °F 93% 29.91 in - NNW 5.8 mph - N/A   Unknown
5:56 AM 52.0 °F 50.0 °F 93% 29.92 in - NNW 4.6 mph - N/A   Unknown
6:56 AM 53.1 °F 51.1 °F 93% 29.96 in - NNW 4.6 mph - N/A   Unknown
7:56 AM 55.9 °F 53.1 °F 90% 29.97 in - NW 3.5 mph - N/A   Unknown
8:56 AM 61.0 °F 53.1 °F 75% 29.98 in - North 6.9 mph - N/A   Unknown
9:56 AM 64.0 °F 53.1 °F 67% 29.99 in - North 4.6 mph - N/A   Unknown
10:56 AM 68.0 °F 54.0 °F 61% 29.99 in - ENE 5.8 mph - N/A   Unknown
11:56 AM 69.1 °F 52.0 °F 54% 30.00 in - ESE 3.5 mph - N/A   Unknown
12:56 PM 71.1 °F 50.0 °F 47% 29.99 in - Calm Calm - N/A   Unknown
1:56 PM 72.0 °F 51.1 °F 48% 29.99 in - NE 4.6 mph - N/A   Unknown
2:56 PM 73.0 °F 51.1 °F 46% 29.98 in - Variable 3.5 mph - N/A   Unknown
3:56 PM 73.0 °F 52.0 °F 48% 29.98 in - Variable 5.8 mph - N/A   Unknown
4:56 PM 73.9 °F 52.0 °F 46% 29.97 in - Calm Calm - N/A   Unknown
5:56 PM 72.0 °F 53.1 °F 51% 29.97 in - East 3.5 mph - N/A   Unknown
6:56 PM 70.0 °F 55.9 °F 61% 29.97 in - ENE 3.5 mph - N/A   Unknown
7:56 PM 66.9 °F 57.9 °F 73% 29.97 in - East 3.5 mph - N/A   Unknown
8:56 PM 61.0 °F 57.0 °F 87% 29.98 in - East 3.5 mph - N/A   Unknown
9:56 PM 59.0 °F 55.0 °F 87% 29.98 in - SSE 3.5 mph - N/A   Unknown
10:56 PM 57.0 °F 55.0 °F 93% 29.98 in - Calm Calm - N/A   Unknown
11:56 PM 59.0 °F 55.9 °F 90% 29.98 in - SW 3.5 mph - N/A   Unknown